Dades meteomassalio
Diari Summary for Abril 20, 2017 Units:  Metric    English   Both
« Previous Day
Next Day »
Diari Semanal Mensual Anual Personalitzat
  Maxima: Minima: Mijana:
Temperatura: -17.8 °C -14.3 °C -11.3 °C
Rosada: -17.8 °C -17.4 °C -15.3 °C
Humitat: Humidity % 35 % 63 %
Velocitat del vent: 0 km/h 0 km/h 10.9 km/h
Racha vent: 0 km/h - -
Vent:- - SE
Pressio: 0 hPa 34625.2 hPa -
Pluja: 0 mm    
Historical Graphs
 
 
Tabular Data for Abril 20, 2017
Time Temperature Dew Point Pressure Wind Wind Speed Wind Gust Humidity Rainfall Rate (Hourly) solar Conditions
-17.8 °C -17.8 °C 0 hPa Calm     Humidity % 0 mm SolarRadiationWatts/m^2 W/m2 Conditions
00:00 -12.2 °C -14.7 °C 34625.2 hPa Calm     73 % 0 mm 0.0 W/m2 CLR
00:05 -12.2 °C -14.7 °C 34625.2 hPa Calm     74 % 0 mm 0.0 W/m2 CLR
00:10 -12.2 °C -14.7 °C 34625.2 hPa Calm     74 % 0 mm 0.0 W/m2 CLR
00:15 -12.3 °C -14.7 °C 34625.2 hPa Calm     74 % 0 mm 0.0 W/m2 CLR
00:20 -12.3 °C -14.8 °C 34625.2 hPa Calm     74 % 0 mm 0.0 W/m2 CLR
00:25 -12.3 °C -14.8 °C 34625.2 hPa Calm     74 % 0 mm 0.0 W/m2 CLR
00:30 -12.4 °C -14.7 °C 34625.2 hPa Calm     75 % 0 mm 0.0 W/m2 CLR
00:40 -12.4 °C -14.8 °C 34625.2 hPa Calm     75 % 0 mm 0.0 W/m2 CLR
00:45 -12.4 °C -14.8 °C 34635.4 hPa Calm     75 % 0 mm 0.0 W/m2 CLR
00:50 -12.4 °C -14.8 °C 34635.4 hPa Calm     75 % 0 mm 0.0 W/m2 CLR
01:00 -12.6 °C -14.8 °C 34635.4 hPa Calm     76 % 0 mm 0.0 W/m2 CLR
01:05 -12.7 °C -14.9 °C 34635.4 hPa Calm     76 % 0 mm 0.0 W/m2 CLR
01:10 -12.7 °C -14.8 °C 34635.4 hPa Calm     77 % 0 mm 0.0 W/m2 CLR
01:15 -12.7 °C -14.9 °C 34645.6 hPa Calm     76 % 0 mm 0.0 W/m2 CLR
01:20 -12.9 °C -15.1 °C 34635.4 hPa Calm     76 % 0 mm 0.0 W/m2 CLR
01:25 -12.9 °C -15.1 °C 34635.4 hPa Calm     77 % 0 mm 0.0 W/m2 CLR
01:31 -13.1 °C -15.1 °C 34645.6 hPa Calm     78 % 0 mm 0.0 W/m2 CLR
01:36 -13.1 °C -15.1 °C 34645.6 hPa Calm     79 % 0 mm 0.0 W/m2 CLR
01:41 -13.1 °C -15.1 °C 34645.6 hPa Calm     79 % 0 mm 0.0 W/m2 CLR
01:46 -13.2 °C -15.1 °C 34645.6 hPa Calm     79 % 0 mm 0.0 W/m2 CLR
01:51 -13.2 °C -15.1 °C 34645.6 hPa Calm     79 % 0 mm 0.0 W/m2 CLR
01:56 -13.2 °C -14.9 °C 34645.6 hPa Calm     80 % 0 mm 0.0 W/m2 CLR
02:01 -13.2 °C -15 °C 34645.6 hPa Calm     80 % 0 mm 0.0 W/m2 CLR
02:06 -13.2 °C -15.1 °C 34645.6 hPa Calm     80 % 0 mm 0.0 W/m2 CLR
02:11 -13.3 °C -15.1 °C 34645.6 hPa Calm     80 % 0 mm 0.0 W/m2 CLR
02:16 -13.3 °C -15.1 °C 34645.6 hPa Calm     80 % 0 mm 0.0 W/m2 CLR
02:21 -13.3 °C -15.1 °C 34645.6 hPa Calm     81 % 0 mm 0.0 W/m2 CLR
02:26 -13.4 °C -15.1 °C 34645.6 hPa Calm     81 % 0 mm 0.0 W/m2 CLR
02:31 -13.4 °C -15.1 °C 34645.6 hPa Calm     81 % 0 mm 0.0 W/m2 CLR
02:36 -13.3 °C -15.1 °C 34645.6 hPa Calm     81 % 0 mm 0.0 W/m2 CLR
02:41 -13.3 °C -15.1 °C 34645.6 hPa Calm     80 % 0 mm 0.0 W/m2 CLR
02:46 -13.3 °C -15 °C 34645.6 hPa Calm     81 % 0 mm 0.0 W/m2 CLR
02:51 -13.3 °C -14.9 °C 34645.6 hPa Calm     81 % 0 mm 0.0 W/m2 CLR
02:56 -13.2 °C -14.9 °C 34645.6 hPa Calm     81 % 0 mm 0.0 W/m2 CLR
03:01 -13.2 °C -14.9 °C 34659.1 hPa Calm     81 % 0 mm 0.0 W/m2 CLR
03:11 -13.2 °C -14.9 °C 34645.6 hPa Calm     81 % 0 mm 0.0 W/m2 CLR
03:16 -13.2 °C -14.9 °C 34645.6 hPa Calm     81 % 0 mm 0.0 W/m2 CLR
03:21 -13.2 °C -14.9 °C 34659.1 hPa Calm     81 % 0 mm 0.0 W/m2 CLR
03:26 -13.3 °C -14.9 °C 34659.1 hPa Calm     81 % 0 mm 0.0 W/m2 CLR
03:27 -13.3 °C -14.9 °C 34659.1 hPa Calm     81 % 0 mm 0.0 W/m2 CLR
03:32 -13.2 °C -14.9 °C 34659.1 hPa Calm     81 % 0 mm 0.0 W/m2 CLR
03:37 -13.2 °C -14.9 °C 34659.1 hPa Calm     81 % 0 mm 0.0 W/m2 CLR
03:42 -13.2 °C -14.9 °C 34659.1 hPa Calm     80 % 0 mm 0.0 W/m2 CLR
03:47 -13.2 °C -14.9 °C 34659.1 hPa Calm     80 % 0 mm 0.0 W/m2 CLR
03:52 -13.2 °C -14.9 °C 34645.6 hPa Calm     80 % 0 mm 0.0 W/m2 CLR
03:57 -13.2 °C -14.9 °C 34659.1 hPa Calm     80 % 0 mm 0.0 W/m2 CLR
04:02 -13.2 °C -14.9 °C 34659.1 hPa Calm     80 % 0 mm 0.0 W/m2 CLR
04:07 -13.1 °C -14.9 °C 34659.1 hPa Calm     80 % 0 mm 0.0 W/m2 CLR
04:12 -13.1 °C -14.9 °C 34659.1 hPa Calm     80 % 0 mm 0.0 W/m2 CLR
04:17 -13.2 °C -14.9 °C 34659.1 hPa Calm     80 % 0 mm 0.0 W/m2 CLR
04:22 -13.2 °C -15 °C 34659.1 hPa Calm     80 % 0 mm 0.0 W/m2 CLR
04:27 -13.3 °C -14.9 °C 34659.1 hPa Calm     81 % 0 mm 0.0 W/m2 CLR
04:28 -13.3 °C -14.9 °C 34659.1 hPa Calm     81 % 0 mm 0.0 W/m2 CLR
04:33 -13.3 °C -15 °C 34659.1 hPa Calm     81 % 0 mm 0.0 W/m2 CLR
04:38 -13.4 °C -15.1 °C 34659.1 hPa Calm     81 % 0 mm 0.0 W/m2 CLR
04:43 -13.4 °C -15 °C 34659.1 hPa Calm     82 % 0 mm 0.0 W/m2 CLR
04:48 -13.4 °C -15.1 °C 34659.1 hPa Calm     81 % 0 mm 0.0 W/m2 CLR
04:53 -13.4 °C -15.1 °C 34659.1 hPa Calm     82 % 0 mm 0.0 W/m2 CLR
04:58 -13.5 °C -15.1 °C 34659.1 hPa Calm     82 % 0 mm 0.0 W/m2 CLR
05:03 -13.5 °C -15.1 °C 34659.1 hPa Calm     82 % 0 mm 0.0 W/m2 CLR
05:08 -13.5 °C -15.1 °C 34659.1 hPa Calm     82 % 0 mm 0.0 W/m2 CLR
05:13 -13.6 °C -15.2 °C 34659.1 hPa Calm     82 % 0 mm 0.0 W/m2 CLR
05:18 -13.6 °C -15.2 °C 34659.1 hPa Calm     82 % 0 mm 0.0 W/m2 CLR
05:23 -13.7 °C -15.2 °C 34659.1 hPa Calm     83 % 0 mm 0.0 W/m2 CLR
05:28 -13.7 °C -15.2 °C 34659.1 hPa Calm     83 % 0 mm 0.0 W/m2 CLR
05:33 -13.7 °C -15.2 °C 34659.1 hPa Calm     83 % 0 mm 0.0 W/m2 CLR
05:43 -13.7 °C -15.2 °C 34659.1 hPa Calm     83 % 0 mm 0.0 W/m2 CLR
05:48 -13.7 °C -15.2 °C 34659.1 hPa Calm     83 % 0 mm 0.0 W/m2 CLR
05:53 -13.7 °C -15.2 °C 34659.1 hPa Calm     83 % 0 mm 0.0 W/m2 CLR
05:59 -13.8 °C -15.3 °C 34659.1 hPa Calm     83 % 0 mm 0.0 W/m2 CLR
06:04 -13.7 °C -15.2 °C 34659.1 hPa Calm     83 % 0 mm 0.0 W/m2 CLR
06:09 -13.7 °C -15.2 °C 34659.1 hPa Calm     83 % 0 mm 0.0 W/m2 CLR
06:14 -13.8 °C -15.3 °C 34659.1 hPa Calm     83 % 0 mm 0.0 W/m2 CLR
06:19 -13.8 °C -15.3 °C 34659.1 hPa Calm     83 % 0 mm 0.0 W/m2 CLR
06:24 -13.8 °C -15.3 °C 34669.3 hPa Calm     83 % 0 mm 0.0 W/m2 CLR
06:29 -13.9 °C -15.4 °C 34659.1 hPa Calm     83 % 0 mm 0.0 W/m2 CLR
06:34 -13.9 °C -15.3 °C 34659.1 hPa Calm     84 % 0 mm 0.0 W/m2 CLR
06:39 -13.8 °C -15.2 °C 34659.1 hPa Calm     84 % 0 mm 0.0 W/m2 CLR
06:44 -13.8 °C -15.2 °C 34659.1 hPa Calm     84 % 0 mm 0.0 W/m2 CLR
06:49 -13.8 °C -15.3 °C 34659.1 hPa Calm     83 % 0 mm 0.0 W/m2 CLR
06:54 -13.9 °C -15.4 °C 34659.1 hPa Calm     83 % 0 mm 0.0 W/m2 CLR
06:59 -13.9 °C -15.3 °C 34659.1 hPa Calm     84 % 0 mm 0.0 W/m2 CLR
07:04 -14 °C -15.4 °C 34669.3 hPa Calm     84 % 0 mm 0.0 W/m2 OVC
07:09 -14 °C -15.4 °C 34669.3 hPa Calm     84 % 0 mm 7.0 W/m2 OVC
07:14 -14.1 °C -15.4 °C 34669.3 hPa Calm     84 % 0 mm 7.0 W/m2 OVC
07:19 -14.1 °C -15.5 °C 34669.3 hPa Calm     84 % 0 mm 11.0 W/m2 BKN
07:24 -14.1 °C -15.5 °C 34669.3 hPa Calm     84 % 0 mm 14.0 W/m2 BKN
07:29 -14.2 °C -15.6 °C 34669.3 hPa Calm     84 % 0 mm 18.0 W/m2 BKN
07:34 -14.2 °C -15.6 °C 34669.3 hPa Calm     84 % 0 mm 23.0 W/m2 BKN
07:39 -14.3 °C -15.6 °C 34682.8 hPa Calm     85 % 0 mm 30.0 W/m2 BKN
07:44 -14.3 °C -15.6 °C 34682.8 hPa Calm     85 % 0 mm 37.0 W/m2 BKN
07:49 -14.3 °C -15.6 °C 34682.8 hPa Calm     85 % 0 mm 49.0 W/m2 BKN
07:54 -14.2 °C -15.5 °C 34682.8 hPa Calm     85 % 0 mm 53.0 W/m2 SCT
07:59 -14.3 °C -15.6 °C 34693 hPa Calm     85 % 0 mm 58.0 W/m2 SCT
08:04 -14.3 °C -15.6 °C 34693 hPa Calm     85 % 0 mm 63.0 W/m2 SCT
08:09 -14.3 °C -15.6 °C 34693 hPa Calm     85 % 0 mm 72.0 W/m2 FEW
08:14 -14.2 °C -15.5 °C 34693 hPa Calm     85 % 0 mm 83.0 W/m2 FEW
08:19 -14.2 °C -15.4 °C 34693 hPa Calm     85 % 0 mm 97.0 W/m2 FEW
08:24 -14.1 °C -15.4 °C 34693 hPa Calm     85 % 0 mm 104.0 W/m2 CLR
08:29 -14 °C -15.3 °C 34693 hPa Calm     85 % 0 mm 132.0 W/m2 CLR
08:34 -13.9 °C -15.3 °C 34703.1 hPa Calm     84 % 0 mm 130.0 W/m2 CLR
08:39 -13.7 °C -15.1 °C 34703.1 hPa Calm     84 % 0 mm 151.0 W/m2 CLR
08:44 -13.6 °C -15.1 °C 34703.1 hPa Calm     83 % 0 mm 165.0 W/m2 CLR
08:49 -13.4 °C -15.1 °C 34703.1 hPa Calm     82 % 0 mm 165.0 W/m2 CLR
08:54 -13.3 °C -14.9 °C 34703.1 hPa Calm     82 % 0 mm 174.0 W/m2 CLR
08:59 -13.2 °C -14.8 °C 34703.1 hPa Calm     81 % 0 mm 169.0 W/m2 CLR
09:04 -12.9 °C -14.8 °C 34703.1 hPa Calm     80 % 0 mm 174.0 W/m2 CLR
09:09 -12.9 °C -14.8 °C 34703.1 hPa Calm     79 % 0 mm 162.0 W/m2 CLR
09:14 -12.8 °C -14.7 °C 34703.1 hPa Calm     79 % 0 mm 190.0 W/m2 CLR
09:19 -12.7 °C -14.7 °C 34703.1 hPa Calm     78 % 0 mm 216.0 W/m2 CLR
09:20 -12.7 °C -14.7 °C 34703.1 hPa Calm     78 % 0 mm 218.0 W/m2 CLR
09:25 -12.6 °C -14.7 °C 34703.1 hPa Calm     78 % 0 mm 229.0 W/m2 CLR
09:30 -12.6 °C -14.6 °C 34703.1 hPa Calm     78 % 0 mm 250.0 W/m2 CLR
09:35 -12.4 °C -14.5 °C 34703.1 hPa Calm     78 % 0 mm 271.0 W/m2 CLR
09:40 -12.3 °C -14.4 °C 34703.1 hPa Calm     77 % 0 mm 297.0 W/m2 CLR
09:45 -12.1 °C -14.4 °C 34703.1 hPa Calm     75 % 0 mm 302.0 W/m2 CLR
09:50 -11.9 °C -14.3 °C 34703.1 hPa Calm     75 % 0 mm 318.0 W/m2 CLR
09:55 -11.7 °C -14.3 °C 34703.1 hPa Calm     73 % 0 mm 330.0 W/m2 CLR
10:00 -11.5 °C -14.3 °C 34703.1 hPa Calm     71 % 0 mm 355.0 W/m2 CLR
10:05 -11.3 °C -14.3 °C 34703.1 hPa Calm     70 % 0 mm 353.0 W/m2 CLR
10:10 -11.1 °C -14.2 °C 34703.1 hPa Calm     69 % 0 mm 371.0 W/m2 CLR
10:15 -10.9 °C -14.1 °C 34703.1 hPa Calm     68 % 0 mm 397.0 W/m2 CLR
10:20 -10.7 °C -15.2 °C 34703.1 hPa Calm     58 % 0 mm 408.0 W/m2 CLR
10:25 -10.5 °C -15.4 °C 34703.1 hPa SE 15 km/h 15 km/h 55 % 0 mm 399.0 W/m2 CLR
10:30 -10.4 °C -15.5 °C 34703.1 hPa ESE 17.9 km/h 17.9 km/h 54 % 0 mm 417.0 W/m2 CLR
10:35 -10.3 °C -15.6 °C 34703.1 hPa South 12.9 km/h 12.9 km/h 53 % 0 mm 410.0 W/m2 CLR
10:40 -10.3 °C -15.5 °C 34703.1 hPa SE 6 km/h 6 km/h 53 % 0 mm 462.0 W/m2 CLR
10:45 -10.1 °C -15.8 °C 34703.1 hPa SSE 11.9 km/h 11.9 km/h 50 % 0 mm 499.0 W/m2 CLR
10:50 -10.2 °C -15.8 °C 34703.1 hPa SSE 3.1 km/h   50 % 0 mm 499.0 W/m2 CLR
10:55 -9.9 °C -15.5 °C 34703.1 hPa South 17.9 km/h 17.9 km/h 51 % 0 mm 548.0 W/m2 CLR
10:56 -9.9 °C -15.5 °C 34703.1 hPa SSE 12.9 km/h 12.9 km/h 51 % 0 mm 557.0 W/m2 CLR
11:01 -9.9 °C -15.4 °C 34703.1 hPa SE 17.9 km/h 17.9 km/h 51 % 0 mm 555.0 W/m2 CLR
11:06 -9.8 °C -15.3 °C 34703.1 hPa ESE 9 km/h 9 km/h 51 % 0 mm 547.0 W/m2 CLR
11:11 -9.7 °C -15.4 °C 34703.1 hPa ESE 6 km/h 6 km/h 50 % 0 mm 592.0 W/m2 CLR
11:16 -9.7 °C -15.4 °C 34703.1 hPa East 15 km/h 15 km/h 50 % 0 mm 589.0 W/m2 CLR
11:21 -9.7 °C -15.7 °C 34703.1 hPa SSE 15 km/h 15 km/h 48 % 0 mm 584.0 W/m2 CLR
11:26 -9.6 °C -15.5 °C 34703.1 hPa South 11.9 km/h 11.9 km/h 49 % 0 mm 591.0 W/m2 CLR
11:31 -9.5 °C -15.4 °C 34703.1 hPa East 9 km/h   49 % 0 mm 541.0 W/m2 CLR
11:36 -9.4 °C -15.3 °C 34703.1 hPa ESE 9 km/h 9 km/h 49 % 0 mm 654.0 W/m2 CLR
11:41 -9.2 °C -15.2 °C 34703.1 hPa South 17.9 km/h 17.9 km/h 49 % 0 mm 526.0 W/m2 CLR
11:46 -9.3 °C -15.2 °C 34703.1 hPa ESE 11.9 km/h 11.9 km/h 49 % 0 mm 621.0 W/m2 CLR
11:51 -9.2 °C -15 °C 34703.1 hPa ENE 12.9 km/h 12.9 km/h 50 % 0 mm 626.0 W/m2 CLR
11:57 -9.1 °C -15.2 °C 34703.1 hPa South 20.9 km/h 20.9 km/h 48 % 0 mm 682.0 W/m2 CLR
12:01 -9.1 °C -15.2 °C 34703.1 hPa ENE 15 km/h 15 km/h 48 % 0 mm 689.0 W/m2 CLR
12:06 -8.9 °C -14.9 °C 34703.1 hPa East 18.2 km/h 18.2 km/h 49 % 0 mm 828.0 W/m2 CLR
12:12 -8.8 °C -14.8 °C 34703.1 hPa SE 15 km/h 15 km/h 49 % 0 mm 833.0 W/m2 CLR
12:17 -8.7 °C -14.7 °C 34703.1 hPa South 15 km/h 15 km/h 49 % 0 mm 812.0 W/m2 CLR
12:22 -8.6 °C -14.7 °C 34703.1 hPa NE 12.9 km/h 12.9 km/h 48 % 0 mm 726.0 W/m2 CLR
12:27 -8.6 °C -14.7 °C 34703.1 hPa SE 29.8 km/h 29.8 km/h 48 % 0 mm 698.0 W/m2 CLR
12:32 -8.8 °C -14.8 °C 34693 hPa ESE 17.9 km/h 17.9 km/h 49 % 0 mm 413.0 W/m2 CLR
12:37 -8.9 °C -14.7 °C 34703.1 hPa SW 10.3 km/h 10.3 km/h 50 % 0 mm 390.0 W/m2 CLR
12:42 -8.9 °C -14.7 °C 34703.1 hPa SSE 17.9 km/h 17.9 km/h 50 % 0 mm 396.0 W/m2 CLR
12:47 -9 °C -14.3 °C 34703.1 hPa SSE 29.8 km/h 29.8 km/h 53 % 0 mm 482.0 W/m2 CLR
12:52 -8.9 °C -14.3 °C 34703.1 hPa SE 29.8 km/h 29.8 km/h 53 % 0 mm 643.0 W/m2 CLR
12:57 -9 °C -14.3 °C 34703.1 hPa SE 32.8 km/h 32.8 km/h 53 % 0 mm 789.0 W/m2 CLR
13:02 -9.1 °C -14.3 °C 34693 hPa SE 38.8 km/h 38.8 km/h 53 % 0 mm 647.0 W/m2 CLR
13:07 -9.1 °C -14.2 °C 34693 hPa SSE 26.9 km/h 26.9 km/h 54 % 0 mm 663.0 W/m2 CLR
13:12 -9 °C -14 °C 34693 hPa SE 31.1 km/h 31.1 km/h 55 % 0 mm 816.0 W/m2 CLR
13:17 -8.9 °C -14.1 °C 34693 hPa SSW 35.7 km/h 35.7 km/h 54 % 0 mm 701.0 W/m2 CLR
13:22 -9.1 °C -14.1 °C 34693 hPa SSE 32.8 km/h 32.8 km/h 55 % 0 mm 788.0 W/m2 CLR
13:27 -9 °C -14 °C 34693 hPa SE 38.8 km/h 38.8 km/h 55 % 0 mm 812.0 W/m2 CLR
13:32 -9 °C -14.1 °C 34693 hPa SSE 29.8 km/h 29.8 km/h 54 % 0 mm 608.0 W/m2 CLR
13:37 -8.9 °C -14.1 °C 34693 hPa SE 29.8 km/h 29.8 km/h 54 % 0 mm 817.0 W/m2 CLR
13:42 -9 °C -14 °C 34693 hPa SSE 41.7 km/h 41.7 km/h 55 % 0 mm 865.0 W/m2 CLR
13:47 -8.8 °C -14 °C 34693 hPa SSW 29.8 km/h 29.8 km/h 54 % 0 mm 628.0 W/m2 CLR
13:52 -8.8 °C -14.3 °C 34682.8 hPa SSW 38.8 km/h 38.8 km/h 52 % 0 mm 728.0 W/m2 CLR
13:57 -8.8 °C -14.1 °C 34693 hPa SSW 26.9 km/h 26.9 km/h 53 % 0 mm 889.0 W/m2 CLR
14:07 -8.9 °C -14.2 °C 34693 hPa SE 38.8 km/h 38.8 km/h 53 % 0 mm 849.0 W/m2 CLR
14:12 -8.8 °C -14.1 °C 34682.8 hPa SSE 38.8 km/h 38.8 km/h 53 % 0 mm 570.0 W/m2 CLR
14:17 -8.7 °C -14 °C 34682.8 hPa SSE 32.8 km/h 32.8 km/h 53 % 0 mm 821.0 W/m2 CLR
14:22 -8.5 °C -14 °C 34682.8 hPa SSE 36.2 km/h 36.2 km/h 52 % 0 mm 555.0 W/m2 CLR
14:27 -8.5 °C -14 °C 34682.8 hPa South 35.7 km/h 35.7 km/h 52 % 0 mm 946.0 W/m2 CLR
14:32 -8.7 °C -14.1 °C 34682.8 hPa South 35.7 km/h 35.7 km/h 52 % 0 mm 900.0 W/m2 CLR
14:37 -8.6 °C -14.1 °C 34682.8 hPa South 20.9 km/h 20.9 km/h 52 % 0 mm 969.0 W/m2 CLR
14:43 -8.4 °C -14.1 °C 34682.8 hPa SSE 25.9 km/h 25.9 km/h 51 % 0 mm 754.0 W/m2 CLR
14:53 -8.4 °C -14.1 °C 34682.8 hPa ESE 23.8 km/h 23.8 km/h 51 % 0 mm 1025.0 W/m2 CLR
14:58 -8.3 °C -14.3 °C 34682.8 hPa ESE 11.9 km/h 11.9 km/h 49 % 0 mm 976.0 W/m2 CLR
15:03 -8.3 °C -14.3 °C 34682.8 hPa SE 29.8 km/h 29.8 km/h 49 % 0 mm 366.0 W/m2 CLR
15:08 -8.4 °C -14.1 °C 34682.8 hPa South 23.8 km/h 23.8 km/h 51 % 0 mm 415.0 W/m2 CLR
15:13 -8.4 °C -14.2 °C 34682.8 hPa SSW 26.9 km/h 26.9 km/h 50 % 0 mm 478.0 W/m2 CLR
15:18 -8.5 °C -14.2 °C 34682.8 hPa ESE 29.8 km/h 29.8 km/h 51 % 0 mm 497.0 W/m2 CLR
15:23 -8.5 °C -14.2 °C 34682.8 hPa SE 38.8 km/h 38.8 km/h 51 % 0 mm 462.0 W/m2 CLR
15:28 -8.7 °C -14.2 °C 34682.8 hPa SE 32.8 km/h 32.8 km/h 52 % 0 mm 970.0 W/m2 CLR
15:33 -8.7 °C -14.2 °C 34682.8 hPa SE 35.7 km/h 35.7 km/h 52 % 0 mm 338.0 W/m2 CLR
15:38 -8.6 °C -14.2 °C 34682.8 hPa SE 35.7 km/h 35.7 km/h 51 % 0 mm 494.0 W/m2 CLR
15:43 -8.5 °C -14.2 °C 34682.8 hPa South 20.9 km/h 20.9 km/h 51 % 0 mm 693.0 W/m2 CLR
15:48 -8.5 °C -14.2 °C 34682.8 hPa SE 29.8 km/h 29.8 km/h 51 % 0 mm 772.0 W/m2 CLR
15:53 -8.7 °C -14.3 °C 34682.8 hPa SE 35.7 km/h 35.7 km/h 51 % 0 mm 466.0 W/m2 CLR
15:58 -8.7 °C -14.3 °C 34682.8 hPa SE 38.8 km/h 38.8 km/h 51 % 0 mm 373.0 W/m2 CLR
16:03 -8.7 °C -14.2 °C 34682.8 hPa SE 26.9 km/h 26.9 km/h 52 % 0 mm 766.0 W/m2 CLR
16:08 -8.7 °C -14.3 °C 34669.3 hPa SE 20.9 km/h 20.9 km/h 51 % 0 mm 861.0 W/m2 CLR
16:13 -8.5 °C -14.5 °C 34682.8 hPa SE 29.8 km/h 29.8 km/h 49 % 0 mm 838.0 W/m2 CLR
16:18 -8.4 °C -14.6 °C 34669.3 hPa South 20.9 km/h 20.9 km/h 48 % 0 mm 675.0 W/m2 CLR
16:23 -8.3 °C -14.7 °C 34669.3 hPa SE 44.1 km/h 44.1 km/h 47 % 0 mm 647.0 W/m2 CLR
16:28 -8.5 °C -14.7 °C 34669.3 hPa SE 25.9 km/h 25.9 km/h 48 % 0 mm 729.0 W/m2 CLR
16:33 -8.6 °C -14.6 °C 34669.3 hPa SSE 9 km/h 9 km/h 49 % 0 mm 816.0 W/m2 CLR
16:38 -8.4 °C -14.7 °C 34669.3 hPa ESE 29.8 km/h 29.8 km/h 47 % 0 mm 287.0 W/m2 CLR
16:48 -8.5 °C -14.8 °C 34669.3 hPa ESE 29.8 km/h 29.8 km/h 47 % 0 mm 357.0 W/m2 CLR
16:53 -8.6 °C -15.1 °C 34669.3 hPa South 20.9 km/h 20.9 km/h 46 % 0 mm 731.0 W/m2 CLR
16:58 -8.6 °C -15.1 °C 34669.3 hPa ESE 26.9 km/h 26.9 km/h 46 % 0 mm 260.0 W/m2 CLR
17:03 -8.6 °C -15.2 °C 34669.3 hPa SSE 29.8 km/h 29.8 km/h 45 % 0 mm 315.0 W/m2 CLR
17:08 -8.7 °C -15.3 °C 34669.3 hPa ESE 9 km/h 9 km/h 45 % 0 mm 640.0 W/m2 CLR
17:13 -8.5 °C -14.9 °C 34669.3 hPa East 20.9 km/h 20.9 km/h 46 % 0 mm 415.0 W/m2 CLR
17:18 -8.4 °C -15.1 °C 34669.3 hPa ESE 20.9 km/h 20.9 km/h 45 % 0 mm 431.0 W/m2 CLR
17:23 -8.5 °C -15.2 °C 34669.3 hPa ESE 29.8 km/h 29.8 km/h 45 % 0 mm 487.0 W/m2 CLR
17:28 -8.6 °C -15.2 °C 34669.3 hPa SE 38.8 km/h 38.8 km/h 45 % 0 mm 596.0 W/m2 CLR
17:33 -8.5 °C -15.3 °C 34669.3 hPa ESE 12.9 km/h 12.9 km/h 44 % 0 mm 550.0 W/m2 CLR
17:38 -8.5 °C -15.9 °C 34669.3 hPa ESE 35.7 km/h 35.7 km/h 41 % 0 mm 531.0 W/m2 CLR
17:43 -8.6 °C -16 °C 34669.3 hPa SE 23.8 km/h 23.8 km/h 41 % 0 mm 439.0 W/m2 CLR
17:48 -8.7 °C -15.9 °C 34669.3 hPa SSE 20.9 km/h 20.9 km/h 42 % 0 mm 355.0 W/m2 CLR
17:53 -8.8 °C -16.3 °C 34669.3 hPa SE 23.3 km/h 23.3 km/h 40 % 0 mm 394.0 W/m2 CLR
17:58 -8.7 °C -16.9 °C 34669.3 hPa SE 26.9 km/h 26.9 km/h 37 % 0 mm 489.0 W/m2 CLR
18:03 -8.7 °C -17.3 °C 34669.3 hPa SSE 23.8 km/h 23.8 km/h 35 % 0 mm 343.0 W/m2 CLR
18:08 -8.7 °C -16.8 °C 34669.3 hPa SE 31.1 km/h 31.1 km/h 37 % 0 mm 390.0 W/m2 CLR
18:13 -8.8 °C -16.6 °C 34669.3 hPa East 32.8 km/h 32.8 km/h 39 % 0 mm 255.0 W/m2 CLR
18:18 -8.8 °C -17 °C 34669.3 hPa ESE 31.1 km/h 31.1 km/h 37 % 0 mm 260.0 W/m2 CLR
18:23 -8.8 °C -17 °C 34669.3 hPa SE 29.8 km/h 29.8 km/h 37 % 0 mm 392.0 W/m2 CLR
18:28 -8.8 °C -17.2 °C 34669.3 hPa ESE 20.9 km/h 20.9 km/h 36 % 0 mm 415.0 W/m2 CLR
18:33 -8.8 °C -16.6 °C 34682.8 hPa SE 29.8 km/h 29.8 km/h 39 % 0 mm 366.0 W/m2 CLR
18:39 -8.9 °C -16.7 °C 34669.3 hPa ESE 32.8 km/h 32.8 km/h 39 % 0 mm 202.0 W/m2 CLR
18:43 -9 °C -16.6 °C 34669.3 hPa SE 29.8 km/h 29.8 km/h 40 % 0 mm 221.0 W/m2 CLR
18:49 -8.9 °C -16.9 °C 34682.8 hPa SE 29.8 km/h 29.8 km/h 38 % 0 mm 302.0 W/m2 CLR
18:54 -9 °C -17.4 °C 34682.8 hPa SE 32.8 km/h 32.8 km/h 36 % 0 mm 202.0 W/m2 CLR
18:59 -9.1 °C -17.4 °C 34682.8 hPa SE 35.7 km/h 35.7 km/h 36 % 0 mm 299.0 W/m2 CLR
19:04 -9.1 °C -16.8 °C 34682.8 hPa SE 29.8 km/h 29.8 km/h 39 % 0 mm 283.0 W/m2 CLR
19:09 -9.1 °C -16.8 °C 34682.8 hPa ESE 29.8 km/h 29.8 km/h 39 % 0 mm 211.0 W/m2 CLR
19:14 -9.1 °C -17.1 °C 34682.8 hPa SE 26.9 km/h 26.9 km/h 38 % 0 mm 237.0 W/m2 CLR
19:19 -9.2 °C -17.1 °C 34682.8 hPa SSE 29.8 km/h 29.8 km/h 38 % 0 mm 160.0 W/m2 CLR
19:24 -9.3 °C -17 °C 34682.8 hPa SE 29.8 km/h 29.8 km/h 39 % 0 mm 130.0 W/m2 CLR
19:29 -9.3 °C -17.3 °C 34682.8 hPa ESE 29.8 km/h 29.8 km/h 38 % 0 mm 176.0 W/m2 CLR
19:34 -9.4 °C -17.1 °C 34682.8 hPa SSE 29.8 km/h 29.8 km/h 39 % 0 mm 153.0 W/m2 CLR
19:39 -9.4 °C -17.3 °C 34682.8 hPa SSE 23.8 km/h 23.8 km/h 38 % 0 mm 135.0 W/m2 CLR
19:44 -9.5 °C -17 °C 34693 hPa SSE 29.8 km/h 29.8 km/h 40 % 0 mm 121.0 W/m2 CLR
19:49 -9.6 °C -16.9 °C 34693 hPa SE 29.8 km/h 29.8 km/h 41 % 0 mm 100.0 W/m2 CLR
19:54 -9.7 °C -16.9 °C 34682.8 hPa SE 20.9 km/h 20.9 km/h 41 % 0 mm 84.0 W/m2 FEW
19:59 -9.7 °C -16.8 °C 34693 hPa SSE 15 km/h 15 km/h 42 % 0 mm 69.0 W/m2 FEW
20:04 -9.8 °C -16.8 °C 34693 hPa SSE 26.9 km/h 26.9 km/h 42 % 0 mm 51.0 W/m2 SCT
20:09 -9.8 °C -16.9 °C 34693 hPa SSE 20.9 km/h 20.9 km/h 42 % 0 mm 42.0 W/m2 BKN
20:14 -9.9 °C -16.8 °C 34693 hPa SE 15 km/h 15 km/h 43 % 0 mm 30.0 W/m2 BKN
20:19 -10 °C -16.7 °C 34693 hPa SSE 18.2 km/h 18.2 km/h 44 % 0 mm 23.0 W/m2 BKN
20:24 -10.1 °C -16.8 °C 34703.1 hPa SSE 17.9 km/h 17.9 km/h 44 % 0 mm 18.0 W/m2 BKN
20:29 -10.2 °C -16.6 °C 34703.1 hPa SE 15 km/h 15 km/h 46 % 0 mm 14.0 W/m2 BKN
20:34 -10.3 °C -16.5 °C 34703.1 hPa ESE 11.9 km/h 11.9 km/h 47 % 0 mm 11.0 W/m2 BKN
20:39 -10.4 °C -16.4 °C 34703.1 hPa SE 15 km/h 15 km/h 48 % 0 mm 9.0 W/m2 BKN
20:44 -10.5 °C -16.5 °C 34703.1 hPa SSE 17.9 km/h 17.9 km/h 48 % 0 mm 5.0 W/m2 OVC
20:49 -10.6 °C -16.4 °C 34716.7 hPa SSE 15 km/h 15 km/h 49 % 0 mm 0.0 W/m2 OVC
20:54 -10.7 °C -16.4 °C 34716.7 hPa SSE 9 km/h   49 % 0 mm 0.0 W/m2 OVC
20:59 -10.8 °C -16.3 °C 34716.7 hPa ESE 9 km/h 9 km/h 51 % 0 mm 0.0 W/m2 CLR
21:04 -10.9 °C -16.2 °C 34716.7 hPa SE 9 km/h 9 km/h 52 % 0 mm 0.0 W/m2 CLR
21:09 -10.9 °C -16.2 °C 34726.8 hPa Calm     53 % 0 mm 0.0 W/m2 CLR
21:14 -11.1 °C -16.2 °C 34726.8 hPa Calm     53 % 0 mm 0.0 W/m2 CLR
21:19 -11.2 °C -16.2 °C 34726.8 hPa Calm     54 % 0 mm 0.0 W/m2 CLR
21:24 -11.2 °C -16.1 °C 34740.4 hPa Calm     55 % 0 mm 0.0 W/m2 CLR
21:29 -11.2 °C -16.1 °C 34740.4 hPa Calm     55 % 0 mm 0.0 W/m2 CLR
21:34 -11.3 °C -16 °C 34740.4 hPa Calm     56 % 0 mm 0.0 W/m2 CLR
21:39 -11.3 °C -16.1 °C 34740.4 hPa Calm     56 % 0 mm 0.0 W/m2 CLR
21:44 -11.4 °C -16 °C 34740.4 hPa Calm     57 % 0 mm 0.0 W/m2 CLR
21:49 -11.5 °C -16.1 °C 34740.4 hPa Calm     57 % 0 mm 0.0 W/m2 CLR
21:54 -11.6 °C -15.9 °C 34740.4 hPa SSE 9 km/h 9 km/h 58 % 0 mm 0.0 W/m2 CLR
21:59 -11.6 °C -16 °C 34750.5 hPa SSE 11.9 km/h 11.9 km/h 58 % 0 mm 0.0 W/m2 CLR
22:09 -11.8 °C -16.1 °C 34750.5 hPa Calm     59 % 0 mm 0.0 W/m2 CLR
22:14 -12 °C -16.2 °C 34750.5 hPa SSE 11.9 km/h 11.9 km/h 60 % 0 mm 0.0 W/m2 CLR
22:19 -12.1 °C -15.9 °C 34750.5 hPa SSE 15 km/h 15 km/h 62 % 0 mm 0.0 W/m2 CLR
22:24 -12 °C -15.9 °C 34750.5 hPa SE 11.9 km/h 11.9 km/h 62 % 0 mm 0.0 W/m2 CLR
22:29 -12 °C -15.9 °C 34750.5 hPa Calm     62 % 0 mm 0.0 W/m2 CLR
22:34 -12 °C -15.9 °C 34760.7 hPa Calm     62 % 0 mm 0.0 W/m2 CLR
22:39 -12.1 °C -15.8 °C 34760.7 hPa Calm     63 % 0 mm 0.0 W/m2 CLR
22:44 -12.1 °C -15.9 °C 34760.7 hPa Calm     63 % 0 mm 0.0 W/m2 CLR
22:49 -12.3 °C -16 °C 34760.7 hPa Calm     63 % 0 mm 0.0 W/m2 CLR
22:54 -12.3 °C -15.9 °C 34760.7 hPa Calm     64 % 0 mm 0.0 W/m2 CLR
22:59 -12.4 °C -16.1 °C 34774.2 hPa Calm     64 % 0 mm 0.0 W/m2 CLR
23:04 -12.6 °C -16.1 °C 34774.2 hPa Calm     65 % 0 mm 0.0 W/m2 CLR
23:09 -12.7 °C -16.2 °C 34774.2 hPa Calm     65 % 0 mm 0.0 W/m2 CLR
23:14 -12.8 °C -16.2 °C 34774.2 hPa Calm     66 % 0 mm 0.0 W/m2 CLR
23:19 -12.9 °C -16.2 °C 34774.2 hPa Calm     67 % 0 mm 0.0 W/m2 CLR
23:24 -13.1 °C -16.4 °C 34774.2 hPa Calm     66 % 0 mm 0.0 W/m2 CLR
23:29 -13.2 °C -16.5 °C 34774.2 hPa Calm     66 % 0 mm 0.0 W/m2 CLR
23:34 -13.3 °C -16.5 °C 34774.2 hPa Calm     67 % 0 mm 0.0 W/m2 CLR
23:39 -13.4 °C -16.5 °C 34774.2 hPa Calm     68 % 0 mm 0.0 W/m2 CLR
23:44 -13.6 °C -16.5 °C 34774.2 hPa Calm     69 % 0 mm 0.0 W/m2 CLR
23:49 -13.7 °C -16.5 °C 34774.2 hPa Calm     70 % 0 mm 0.0 W/m2 CLR
23:55 -13.8 °C -16.6 °C 34774.2 hPa Calm     70 % 0 mm 0.0 W/m2 CLR
Lo Temps de Massalio
Compliments of Weather Underground - 1.25 mb